16-02-2023, 00:00:05,    206,    0.0,    4.8,   0.00,   0.00, 1017.8,   95.0, -999.0
16-02-2023, 00:00:14,    206,    0.0,    4.8,   0.00,   0.00, 1017.8,   94.8, -999.0
16-02-2023, 00:00:25,    206,    0.0,    4.8,   0.00,   0.00, 1017.8,   95.2, -999.0
16-02-2023, 00:00:35,    206,    0.0,    4.8,   0.00,   0.00, 1017.8,   95.5, -999.0
16-02-2023, 00:00:45,    197,    0.0,    4.8,   0.00,   0.00, 1017.8,   95.6, -999.0
16-02-2023, 00:00:54,    197,    0.0,    4.8,   0.00,   0.00, 1017.8,   95.7, -999.0
16-02-2023, 00:01:05,    197,    0.1,    4.8,   0.00,   0.00, 1017.9,   95.9, -999.0
16-02-2023, 00:01:15,    197,    0.0,    4.8,   0.00,   0.00, 1017.8,   95.6, -999.0
16-02-2023, 00:01:24,    197,    0.0,    4.8,   0.00,   0.00, 1017.8,   95.7, -999.0
16-02-2023, 00:01:34,    197,    0.0,    4.8,   0.00,   0.00, 1017.8,   95.6, -999.0
16-02-2023, 00:01:45,    197,    0.0,    4.8,   0.00,   0.00, 1017.8,   95.7, -999.0
16-02-2023, 00:01:54,    197,    0.0,    4.8,   0.00,   0.00, 1017.8,   95.7, -999.0
16-02-2023, 00:02:04,    197,    0.0,    4.8,   0.00,   0.00, 1017.8,   95.7, -999.0
16-02-2023, 00:02:14,    197,    0.0,    4.8,   0.00,   0.00, 1017.8,   95.8, -999.0
16-02-2023, 00:02:25,    198,    0.0,    4.9,   0.00,   0.00, 1017.8,   96.5, -999.0
16-02-2023, 00:02:34,    197,    0.0,    4.7,   0.00,   0.00, 1017.8,   96.2, -999.0
16-02-2023, 00:02:44,    197,    0.0,    4.9,   0.00,   0.00, 1017.8,   96.1, -999.0
16-02-2023, 00:02:54,    197,    0.0,    4.8,   0.00,   0.00, 1017.8,   96.4, -999.0
16-02-2023, 00:03:05,    197,    0.0,    4.9,   0.00,   0.00, 1017.8,   96.5, -999.0
16-02-2023, 00:03:14,    197,    0.0,    4.8,   0.00,   0.00, 1017.8,   96.1, -999.0
16-02-2023, 00:03:24,    197,    0.0,    4.9,   0.00,   0.00, 1017.8,   95.1, -999.0
16-02-2023, 00:03:34,    197,    0.0,    4.8,   0.00,   0.00, 1017.8,   94.6, -999.0
16-02-2023, 00:03:44,    197,    0.0,    4.8,   0.00,   0.00, 1017.8,   94.2, -999.0
16-02-2023, 00:03:54,    172,    0.3,    4.9,   0.00,   0.00, 1017.9,   94.4, -999.0
16-02-2023, 00:04:04,    172,    0.0,    4.8,   0.00,   0.00, 1017.8,   94.1, -999.0
16-02-2023, 00:04:14,    172,    0.0,    4.7,   0.00,   0.00, 1017.8,   94.1, -999.0
16-02-2023, 00:04:24,    172,    0.0,    4.7,   0.00,   0.00, 1017.8,   94.3, -999.0
16-02-2023, 00:04:34,    173,    0.0,    4.7,   0.00,   0.00, 1017.8,   94.4, -999.0
16-02-2023, 00:04:44,    172,    0.0,    4.8,   0.00,   0.00, 1017.8,   94.8, -999.0
16-02-2023, 00:04:54,    172,    0.0,    4.8,   0.00,   0.00, 1017.8,   95.6, -999.0
16-02-2023, 00:05:04,    172,    0.0,    4.8,   0.00,   0.00, 1017.8,   96.6, -999.0
16-02-2023, 00:05:14,    172,    0.0,    4.8,   0.00,   0.00, 1017.8,   96.4, -999.0
16-02-2023, 00:05:24,    173,    0.0,    4.8,   0.00,   0.00, 1017.8,   95.4, -999.0
16-02-2023, 00:05:34,    172,    0.0,    4.8,   0.00,   0.00, 1017.8,   95.0, -999.0
16-02-2023, 00:05:44,    175,    0.0,    4.7,   0.00,   0.00, 1017.8,   95.0, -999.0
16-02-2023, 00:05:54,    175,    0.0,    4.7,   0.00,   0.00, 1017.8,   94.7, -999.0
16-02-2023, 00:06:04,    176,    0.0,    4.8,   0.00,   0.00, 1017.8,   94.2, -999.0
16-02-2023, 00:06:14,    176,    0.0,    4.8,   0.00,   0.00, 1017.8,   94.3, -999.0
16-02-2023, 00:06:24,    175,    0.0,    4.8,   0.00,   0.00, 1017.8,   94.8, -999.0
16-02-2023, 00:06:34,    175,    0.0,    4.7,   0.00,   0.00, 1017.8,   94.8, -999.0
16-02-2023, 00:06:44,    176,    0.0,    4.8,   0.00,   0.00, 1017.8,   95.1, -999.0
16-02-2023, 00:06:54,    176,    0.0,    4.8,   0.00,   0.00, 1017.8,   95.2, -999.0
16-02-2023, 00:07:04,    176,    0.0,    4.7,   0.00,   0.00, 1017.8,   95.1, -999.0
16-02-2023, 00:07:14,    225,    0.2,    4.8,   0.00,   0.00, 1017.8,   95.4, -999.0
16-02-2023, 00:07:24,    225,    0.4,    4.9,   0.00,   0.00, 1017.9,   96.1, -999.0
16-02-2023, 00:07:34,    225,    0.0,    4.8,   0.00,   0.00, 1017.8,   96.5, -999.0
16-02-2023, 00:07:44,    225,    0.0,    4.8,   0.00,   0.00, 1017.8,   97.6, -999.0
16-02-2023, 00:07:54,    225,    0.0,    4.8,   0.00,   0.00, 1017.7,   98.1, -999.0
16-02-2023, 00:08:04,    225,    0.0,    4.8,   0.00,   0.00, 1017.7,   98.3, -999.0
16-02-2023, 00:08:14,    225,    0.0,    4.7,   0.00,   0.00, 1017.8,   98.2, -999.0
16-02-2023, 00:08:24,    225,    0.0,    4.8,   0.00,   0.00, 1017.8,   98.4, -999.0
16-02-2023, 00:08:34,    225,    0.0,    4.9,   0.00,   0.00, 1017.7,   98.6, -999.0
16-02-2023, 00:08:44,    225,    0.0,    4.9,   0.00,   0.00, 1017.7,   98.1, -999.0
16-02-2023, 00:08:54,    225,    0.0,    4.8,   0.00,   0.00, 1017.7,   97.2, -999.0
16-02-2023, 00:09:04,    223,    0.0,    4.8,   0.00,   0.00, 1017.7,   96.6, -999.0
16-02-2023, 00:09:14,    222,    0.0,    4.8,   0.00,   0.00, 1017.7,   96.1, -999.0
16-02-2023, 00:09:24,    223,    0.0,    4.8,   0.00,   0.00, 1017.7,   95.9, -999.0
16-02-2023, 00:09:34,    220,    0.0,    4.8,   0.00,   0.00, 1017.7,   95.7, -999.0
16-02-2023, 00:09:44,    223,    0.0,    4.8,   0.00,   0.00, 1017.7,   95.8, -999.0
16-02-2023, 00:09:54,    223,    0.0,    4.8,   0.00,   0.00, 1017.7,   95.9, -999.0
16-02-2023, 00:10:03,    223,    0.0,    4.8,   0.00,   0.00, 1017.7,   95.9, -999.0
16-02-2023, 00:10:14,    223,    0.0,    4.8,   0.00,   0.00, 1017.7,   96.1, -999.0
16-02-2023, 00:10:24,    223,    0.0,    4.8,   0.00,   0.00, 1017.7,   95.9, -999.0
16-02-2023, 00:10:33,    223,    0.0,    4.6,   0.00,   0.00, 1017.7,   95.8, -999.0
16-02-2023, 00:10:43,    223,    0.0,    4.8,   0.00,   0.00, 1017.7,   95.7, -999.0
16-02-2023, 00:10:54,    223,    0.0,    4.7,   0.00,   0.00, 1017.7,   95.4, -999.0
16-02-2023, 00:11:04,    223,    0.0,    4.7,   0.00,   0.00, 1017.7,   95.4, -999.0
16-02-2023, 00:11:13,    223,    0.0,    4.7,   0.00,   0.00, 1017.7,   95.7, -999.0
16-02-2023, 00:11:24,    223,    0.0,    4.8,   0.00,   0.00, 1017.7,   95.8, -999.0
16-02-2023, 00:11:34,    223,    0.0,    4.8,   0.00,   0.00, 1017.7,   96.0, -999.0
16-02-2023, 00:11:43,    223,    0.0,    4.7,   0.00,   0.00, 1017.7,   96.0, -999.0
16-02-2023, 00:11:53,    223,    0.0,    4.6,   0.00,   0.00, 1017.6,   96.2, -999.0
16-02-2023, 00:12:04,    223,    0.0,    4.7,   0.00,   0.00, 1017.7,   96.4, -999.0
16-02-2023, 00:12:14,    223,    0.0,    4.7,   0.00,   0.00, 1017.7,   97.0, -999.0
16-02-2023, 00:12:23,    223,    0.0,    4.7,   0.00,   0.00, 1017.7,   98.3, -999.0
16-02-2023, 00:12:33,    223,    0.0,    4.8,   0.00,   0.00, 1017.7,   98.6, -999.0
16-02-2023, 00:12:44,    223,    0.0,    4.7,   0.00,   0.00, 1017.7,   98.6, -999.0
16-02-2023, 00:12:53,    223,    0.0,    4.8,   0.00,   0.00, 1017.7,   98.7, -999.0
16-02-2023, 00:13:03,    223,    0.0,    4.8,   0.00,   0.00, 1017.7,   98.6, -999.0
16-02-2023, 00:13:13,    223,    0.0,    4.8,   0.00,   0.00, 1017.7,   98.3, -999.0
16-02-2023, 00:13:23,    219,    0.0,    4.7,   0.00,   0.00, 1017.7,   97.8, -999.0
16-02-2023, 00:13:33,    219,    0.0,    4.7,   0.00,   0.00, 1017.7,   97.0, -999.0
16-02-2023, 00:13:43,    221,    0.0,    4.7,   0.00,   0.00, 1017.7,   96.0, -999.0
16-02-2023, 00:13:53,    219,    0.0,    4.7,   0.00,   0.00, 1017.7,   95.8, -999.0
16-02-2023, 00:14:03,    220,    0.0,    4.7,   0.00,   0.00, 1017.7,   96.2, -999.0
16-02-2023, 00:14:13,    194,    0.0,    4.7,   0.00,   0.00, 1017.7,   96.8, -999.0
16-02-2023, 00:14:23,    194,    0.0,    4.7,   0.00,   0.00, 1017.7,   97.1, -999.0
16-02-2023, 00:14:33,    193,    0.0,    4.7,   0.00,   0.00, 1017.7,   97.4, -999.0
16-02-2023, 00:14:43,    194,    0.0,    4.7,   0.00,   0.00, 1017.7,   98.1, -999.0
16-02-2023, 00:14:53,    194,    0.0,    4.7,   0.00,   0.00, 1017.7,   98.6, -999.0
16-02-2023, 00:15:03,    194,    0.0,    4.7,   0.00,   0.00, 1017.7,   98.7, -999.0
16-02-2023, 00:15:13,    194,    0.0,    4.7,   0.00,   0.00, 1017.7,   98.6, -999.0
16-02-2023, 00:15:23,    194,    0.0,    4.7,   0.00,   0.00, 1017.7,   98.5, -999.0
16-02-2023, 00:15:33,    194,    0.0,    4.7,   0.00,   0.00, 1017.7,   98.6, -999.0
16-02-2023, 00:15:43,    204,    0.0,    4.7,   0.00,   0.00, 1017.7,   98.6, -999.0
16-02-2023, 00:15:53,    253,    0.8,    4.7,   0.00,   0.00, 1017.8,   98.8, -999.0
16-02-2023, 00:16:03,    253,    1.4,    4.9,   0.00,   0.00, 1017.8,   99.0, -999.0
16-02-2023, 00:16:13,    178,    0.9,    4.8,   0.00,   0.00, 1017.8,   99.0, -999.0
16-02-2023, 00:16:23,    177,    0.1,    4.7,   0.00,   0.00, 1017.7,   98.7, -999.0
16-02-2023, 00:16:33,    177,    0.0,    4.7,   0.00,   0.00, 1017.7,   98.6, -999.0
16-02-2023, 00:16:43,    178,    0.0,    4.7,   0.00,   0.00, 1017.7,   98.6, -999.0
16-02-2023, 00:16:53,    178,    0.0,    4.7,   0.00,   0.00, 1017.7,   98.6, -999.0
16-02-2023, 00:17:03,    178,    0.0,    4.7,   0.00,   0.00, 1017.7,   98.6, -999.0
16-02-2023, 00:17:13,    177,    0.0,    4.6,   0.00,   0.00, 1017.7,   98.6, -999.0
16-02-2023, 00:17:23,    178,    0.0,    4.8,   0.00,   0.00, 1017.7,   98.6, -999.0
16-02-2023, 00:17:33,    178,    0.0,    4.7,   0.00,   0.00, 1017.6,   98.6, -999.0
16-02-2023, 00:17:43,    177,    0.0,    4.8,   0.00,   0.00, 1017.7,   98.6, -999.0
16-02-2023, 00:17:53,    177,    0.0,    4.7,   0.00,   0.00, 1017.7,   98.7, -999.0
16-02-2023, 00:18:03,    177,    0.0,    4.7,   0.00,   0.00, 1017.7,   98.6, -999.0
16-02-2023, 00:18:13,    180,    0.0,    4.7,   0.00,   0.00, 1017.7,   98.6, -999.0
16-02-2023, 00:18:23,    179,    0.4,    4.7,   0.00,   0.00, 1017.8,   99.0, -999.0
16-02-2023, 00:18:33,    179,    0.0,    4.7,   0.00,   0.00, 1017.6,   98.7, -999.0
16-02-2023, 00:18:43,    180,    0.0,    4.7,   0.00,   0.00, 1017.7,   98.6, -999.0
16-02-2023, 00:18:53,    213,    0.6,    4.7,   0.00,   0.00, 1017.7,   98.9, -999.0
16-02-2023, 00:19:03,    243,    0.3,    4.8,   0.00,   0.00, 1017.7,   98.9, -999.0
16-02-2023, 00:19:13,    242,    0.0,    4.7,   0.00,   0.00, 1017.7,   98.6, -999.0
16-02-2023, 00:19:23,    191,    0.1,    4.7,   0.00,   0.00, 1017.7,   98.9, -999.0
16-02-2023, 00:19:33,    190,    0.0,    4.7,   0.00,   0.00, 1017.7,   98.7, -999.0
16-02-2023, 00:19:42,    190,    0.0,    4.7,   0.00,   0.00, 1017.7,   98.6, -999.0
16-02-2023, 00:19:53,    190,    0.0,    4.7,   0.00,   0.00, 1017.7,   98.7, -999.0
16-02-2023, 00:20:03,    191,    0.0,    4.7,   0.00,   0.00, 1017.7,   98.6, -999.0
16-02-2023, 00:20:13,    190,    0.0,    4.6,   0.00,   0.00, 1017.7,   98.6, -999.0
16-02-2023, 00:20:22,    197,    0.0,    4.7,   0.00,   0.00, 1017.6,   98.6, -999.0
16-02-2023, 00:20:33,    199,    0.6,    4.7,   0.00,   0.00, 1017.7,   98.9, -999.0
16-02-2023, 00:20:43,    200,    0.0,    4.7,   0.00,   0.00, 1017.7,   98.6, -999.0
16-02-2023, 00:20:52,    199,    0.0,    4.7,   0.00,   0.00, 1017.6,   98.6, -999.0
16-02-2023, 00:21:03,    200,    0.0,    4.7,   0.00,   0.00, 1017.6,   98.6, -999.0
16-02-2023, 00:21:13,    200,    0.0,    4.7,   0.00,   0.00, 1017.7,   98.6, -999.0
16-02-2023, 00:21:22,    200,    0.0,    4.6,   0.00,   0.00, 1017.7,   98.7, -999.0
16-02-2023, 00:21:32,    200,    0.0,    4.7,   0.00,   0.00, 1017.6,   98.7, -999.0
16-02-2023, 00:21:43,    199,    0.0,    4.7,   0.00,   0.00, 1017.6,   98.6, -999.0
16-02-2023, 00:21:53,    199,    0.0,    4.7,   0.00,   0.00, 1017.6,   98.6, -999.0
16-02-2023, 00:22:02,    199,    0.0,    4.7,   0.00,   0.00, 1017.6,   98.6, -999.0
16-02-2023, 00:22:12,    204,    0.0,    4.7,   0.00,   0.00, 1017.6,   98.6, -999.0
16-02-2023, 00:22:23,    199,    0.0,    4.7,   0.00,   0.00, 1017.6,   98.5, -999.0
16-02-2023, 00:22:32,    199,    0.0,    4.7,   0.00,   0.00, 1017.6,   98.7, -999.0
16-02-2023, 00:22:42,    199,    0.0,    4.7,   0.00,   0.00, 1017.7,   98.6, -999.0
16-02-2023, 00:22:52,    199,    0.0,    4.6,   0.00,   0.00, 1017.7,   98.6, -999.0
16-02-2023, 00:23:03,    199,    0.0,    4.7,   0.00,   0.00, 1017.6,   98.6, -999.0
16-02-2023, 00:23:12,    210,    0.7,    4.8,   0.00,   0.00, 1017.7,   98.8, -999.0
16-02-2023, 00:23:22,    211,    0.6,    4.9,   0.00,   0.00, 1017.8,   99.0, -999.0
16-02-2023, 00:23:32,    192,    0.2,    4.8,   0.00,   0.00, 1017.7,   98.9, -999.0
16-02-2023, 00:23:42,    213,    0.2,    4.8,   0.00,   0.00, 1017.7,   98.8, -999.0
16-02-2023, 00:23:52,    213,    0.0,    4.7,   0.00,   0.00, 1017.6,   98.7, -999.0
16-02-2023, 00:24:02,    216,    0.0,    4.7,   0.00,   0.00, 1017.6,   98.6, -999.0
16-02-2023, 00:24:12,    214,    0.2,    4.8,   0.00,   0.00, 1017.7,   98.8, -999.0
16-02-2023, 00:24:22,    213,    0.1,    4.9,   0.00,   0.00, 1017.7,   98.7, -999.0
16-02-2023, 00:24:32,    186,    0.9,    4.9,   0.00,   0.00, 1017.7,   98.9, -999.0
16-02-2023, 00:24:42,    196,    1.1,    4.9,   0.00,   0.00, 1017.8,   99.0, -999.0
16-02-2023, 00:24:52,    198,    0.7,    5.0,   0.00,   0.00, 1017.8,   99.0, -999.0
16-02-2023, 00:25:02,    198,    0.2,    5.0,   0.00,   0.00, 1017.7,   99.0, -999.0
16-02-2023, 00:25:12,    198,    0.0,    4.9,   0.00,   0.00, 1017.7,   98.7, -999.0
16-02-2023, 00:25:22,    199,    0.3,    4.8,   0.00,   0.00, 1017.7,   98.9, -999.0
16-02-2023, 00:25:32,    209,    0.7,    4.9,   0.00,   0.00, 1017.7,   98.9, -999.0
16-02-2023, 00:25:42,    209,    0.3,    4.9,   0.00,   0.00, 1017.7,   98.9, -999.0
16-02-2023, 00:25:52,    208,    0.0,    4.8,   0.00,   0.00, 1017.6,   98.5, -999.0
16-02-2023, 00:26:02,    207,    0.0,    4.7,   0.00,   0.00, 1017.6,   98.6, -999.0
16-02-2023, 00:26:12,    219,    0.1,    4.9,   0.00,   0.00, 1017.7,   98.8, -999.0
16-02-2023, 00:26:22,    200,    0.7,    5.0,   0.00,   0.00, 1017.8,   99.0, -999.0
16-02-2023, 00:26:32,    258,    0.3,    4.9,   0.00,   0.00, 1017.7,   98.9, -999.0
16-02-2023, 00:26:42,    257,    0.0,    4.9,   0.00,   0.00, 1017.6,   98.7, -999.0
16-02-2023, 00:26:52,    258,    0.0,    4.9,   0.00,   0.00, 1017.6,   98.6, -999.0
16-02-2023, 00:27:02,    258,    0.0,    4.9,   0.00,   0.00, 1017.6,   98.6, -999.0
16-02-2023, 00:27:12,    257,    0.0,    4.9,   0.00,   0.00, 1017.6,   98.6, -999.0
16-02-2023, 00:27:22,    257,    0.0,    4.9,   0.00,   0.00, 1017.6,   98.6, -999.0
16-02-2023, 00:27:32,    257,    0.0,    4.9,   0.00,   0.00, 1017.6,   98.6, -999.0
16-02-2023, 00:27:42,    257,    0.0,    4.7,   0.00,   0.00, 1017.6,   98.6, -999.0
16-02-2023, 00:27:52,    217,    0.2,    4.9,   0.00,   0.00, 1017.7,   98.9, -999.0
16-02-2023, 00:28:02,    217,    0.0,    4.8,   0.00,   0.00, 1017.6,   98.7, -999.0
16-02-2023, 00:28:12,    217,    0.0,    4.9,   0.00,   0.00, 1017.6,   98.6, -999.0
16-02-2023, 00:28:22,    217,    0.0,    4.9,   0.00,   0.00, 1017.6,   98.7, -999.0
16-02-2023, 00:28:32,    217,    0.0,    4.9,   0.00,   0.00, 1017.6,   98.6, -999.0
16-02-2023, 00:28:42,    217,    0.0,    4.9,   0.00,   0.00, 1017.6,   98.6, -999.0
16-02-2023, 00:28:52,    217,    0.1,    4.8,   0.00,   0.00, 1017.6,   98.8, -999.0
16-02-2023, 00:29:02,    217,    0.2,    4.9,   0.00,   0.00, 1017.7,   98.8, -999.0
16-02-2023, 00:29:12,    218,    0.0,    4.9,   0.00,   0.00, 1017.6,   98.8, -999.0
16-02-2023, 00:29:22,    217,    0.0,    4.8,   0.00,   0.00, 1017.6,   98.6, -999.0
16-02-2023, 00:29:32,    218,    0.0,    4.8,   0.00,   0.00, 1017.6,   98.7, -999.0
16-02-2023, 00:29:42,    218,    0.0,    4.7,   0.00,   0.00, 1017.6,   98.6, -999.0
16-02-2023, 00:29:51,    218,    0.0,    4.8,   0.00,   0.00, 1017.6,   98.7, -999.0
16-02-2023, 00:30:02,    187,    0.6,    4.9,   0.00,   0.00, 1017.7,   99.0, -999.0
16-02-2023, 00:30:12,    187,    0.1,    4.9,   0.00,   0.00, 1017.6,   98.9, -999.0
16-02-2023, 00:30:22,    209,    0.0,    4.8,   0.00,   0.00, 1017.6,   98.7, -999.0
16-02-2023, 00:30:31,    209,    0.0,    4.8,   0.00,   0.00, 1017.6,   98.7, -999.0
16-02-2023, 00:30:42,    210,    0.1,    4.8,   0.00,   0.00, 1017.7,   98.8, -999.0
16-02-2023, 00:30:52,    210,    0.1,    4.8,   0.00,   0.00, 1017.6,   98.9, -999.0
16-02-2023, 00:31:01,    210,    0.0,    4.7,   0.00,   0.00, 1017.6,   98.6, -999.0
16-02-2023, 00:31:11,    210,    0.0,    4.7,   0.00,   0.00, 1017.6,   98.7, -999.0
16-02-2023, 00:31:22,    210,    0.0,    4.8,   0.00,   0.00, 1017.6,   98.6, -999.0
16-02-2023, 00:31:32,    207,    0.1,    4.8,   0.00,   0.00, 1017.7,   98.8, -999.0
16-02-2023, 00:31:41,    207,    0.4,    4.9,   0.00,   0.00, 1017.7,   99.0, -999.0
16-02-2023, 00:31:51,    220,    0.1,    4.8,   0.00,   0.00, 1017.6,   98.8, -999.0
16-02-2023, 00:32:02,    215,    0.0,    4.8,   0.00,   0.00, 1017.6,   98.6, -999.0
16-02-2023, 00:32:11,    215,    1.0,    4.9,   0.00,   0.00, 1017.6,   98.9, -999.0
16-02-2023, 00:32:21,    216,    0.5,    4.9,   0.00,   0.00, 1017.7,   99.0, -999.0
16-02-2023, 00:32:32,    209,    1.3,    4.9,   0.00,   0.00, 1017.7,   99.0, -999.0
16-02-2023, 00:32:41,    201,    0.5,    4.9,   0.00,   0.00, 1017.6,   98.9, -999.0
16-02-2023, 00:32:51,    205,    1.0,    4.9,   0.00,   0.00, 1017.7,   99.0, -999.0
16-02-2023, 00:33:01,    227,    0.3,    5.0,   0.00,   0.00, 1017.7,   99.0, -999.0
16-02-2023, 00:33:12,    228,    0.5,    4.9,   0.00,   0.00, 1017.6,   98.8, -999.0
16-02-2023, 00:33:21,    228,    0.0,    4.9,   0.00,   0.00, 1017.6,   98.6, -999.0
16-02-2023, 00:33:31,    228,    0.0,    4.9,   0.00,   0.00, 1017.6,   98.7, -999.0
16-02-2023, 00:33:41,    227,    0.0,    4.8,   0.00,   0.00, 1017.5,   98.5, -999.0
16-02-2023, 00:33:51,    194,    0.3,    4.8,   0.00,   0.00, 1017.6,   99.0, -999.0
16-02-2023, 00:34:01,    194,    0.2,    4.8,   0.00,   0.00, 1017.6,   98.8, -999.0
16-02-2023, 00:34:11,    243,    0.6,    5.0,   0.00,   0.00, 1017.6,   99.0, -999.0
16-02-2023, 00:34:21,    242,    0.0,    4.9,   0.00,   0.00, 1017.6,   98.8, -999.0
16-02-2023, 00:34:31,    242,    0.0,    4.8,   0.00,   0.00, 1017.5,   98.6, -999.0
16-02-2023, 00:34:41,    243,    0.0,    4.8,   0.00,   0.00, 1017.5,   98.6, -999.0
16-02-2023, 00:34:51,    242,    0.0,    4.9,   0.00,   0.00, 1017.6,   98.7, -999.0
16-02-2023, 00:35:01,    242,    0.0,    4.8,   0.00,   0.00, 1017.5,   98.6, -999.0
16-02-2023, 00:35:11,    211,    0.9,    4.9,   0.00,   0.00, 1017.6,   25.8, -999.0
16-02-2023, 00:35:21,    219,    2.0,    5.0,   0.00,   0.00, 1017.6,   38.1, -999.0
16-02-2023, 00:35:31,    221,    0.7,    5.0,   0.00,   0.00, 1017.6,   99.0, -999.0
16-02-2023, 00:35:41,    221,    0.0,    4.9,   0.00,   0.00, 1017.5,   98.7, -999.0
16-02-2023, 00:35:51,    220,    0.0,    4.9,   0.00,   0.00, 1017.5,   98.6, -999.0
16-02-2023, 00:36:01,    187,    0.2,    4.9,   0.00,   0.00, 1017.5,   23.1, -999.0
16-02-2023, 00:36:11,    186,    0.0,    4.9,   0.00,   0.00, 1017.5,    0.1, -999.0
16-02-2023, 00:36:21,    186,    0.0,    4.9,   0.00,   0.00, 1017.5,    0.0, -999.0
16-02-2023, 00:36:31,    186,    0.0,    5.0,   0.00,   0.00, 1017.5,    0.0, -999.0
16-02-2023, 00:36:41,    186,    0.0,    5.0,   0.00,   0.00, 1017.5,    0.0, -999.0
16-02-2023, 00:36:51,    187,    0.1,    4.9,   0.00,   0.00, 1017.5,    0.1, -999.0
16-02-2023, 00:37:01,    188,    0.0,    4.9,   0.00,   0.00, 1017.5,    0.0, -999.0
16-02-2023, 00:37:11,    207,    0.1,    4.7,   0.00,   0.00, 1017.5,    0.0, -999.0
16-02-2023, 00:37:21,    206,    1.0,    5.0,   0.00,   0.00, 1017.6,    0.0, -999.0
16-02-2023, 00:37:31,    206,    0.1,    4.9,   0.00,   0.00, 1017.6,    0.2, -999.0
16-02-2023, 00:37:41,    206,    0.2,    4.9,   0.00,   0.00, 1017.6,    0.0, -999.0
16-02-2023, 00:37:51,    205,    0.0,    4.9,   0.00,   0.00, 1017.5,    0.0, -999.0
16-02-2023, 00:38:01,    206,    0.0,    4.9,   0.00,   0.00, 1017.5,    0.0, -999.0
16-02-2023, 00:38:11,    205,    0.0,    4.9,   0.00,   0.00, 1017.5,    0.0, -999.0
16-02-2023, 00:38:21,    205,    0.0,    4.9,   0.00,   0.00, 1017.5,    0.1, -999.0
16-02-2023, 00:38:31,    206,    0.0,    4.9,   0.00,   0.00, 1017.5,    0.0, -999.0
16-02-2023, 00:38:41,    205,    0.0,    4.9,   0.00,   0.00, 1017.5,    0.1, -999.0
16-02-2023, 00:38:51,    205,    0.0,    4.8,   0.00,   0.00, 1017.5,    0.0, -999.0
16-02-2023, 00:39:01,    205,    0.0,    4.8,   0.00,   0.00, 1017.5,    0.0, -999.0
16-02-2023, 00:39:12,    206,    0.0,    4.8,   0.00,   0.00, 1017.5,    0.1, -999.0
16-02-2023, 00:39:21,    239,    0.6,    4.8,   0.00,   0.00, 1017.5,    0.1, -999.0
16-02-2023, 00:39:30,    239,    0.0,    4.8,   0.00,   0.00, 1017.4,    0.2, -999.0
16-02-2023, 00:39:41,    239,    0.0,    4.8,   0.00,   0.00, 1017.5,    0.2, -999.0
16-02-2023, 00:39:51,    240,    0.0,    4.8,   0.00,   0.00, 1017.5,    0.0, -999.0
16-02-2023, 00:40:00,    214,    0.2,    4.8,   0.00,   0.00, 1017.5,    0.0, -999.0
16-02-2023, 00:40:11,    206,    0.0,    4.9,   0.00,   0.00, 1017.5,    0.0, -999.0
16-02-2023, 00:40:21,    206,    0.0,    4.9,   0.00,   0.00, 1017.5,    0.0, -999.0
16-02-2023, 00:40:31,    205,    0.0,    4.8,   0.00,   0.00, 1017.5,    0.0, -999.0
16-02-2023, 00:40:40,    206,    0.0,    4.8,   0.00,   0.00, 1017.5,    0.0, -999.0
16-02-2023, 00:40:51,    191,    0.5,    4.9,   0.00,   0.00, 1017.6,    0.0, -999.0
16-02-2023, 00:41:01,    191,    0.0,    4.8,   0.00,   0.00, 1017.5,    0.0, -999.0
16-02-2023, 00:41:10,    224,    0.2,    4.9,   0.00,   0.00, 1017.5,    0.1, -999.0
16-02-2023, 00:41:20,    203,    0.4,    4.8,   0.00,   0.00, 1017.5,    0.1, -999.0
16-02-2023, 00:41:31,    203,    0.0,    4.8,   0.00,   0.00, 1017.5,    0.0, -999.0
16-02-2023, 00:41:41,    214,    0.3,    4.8,   0.00,   0.00, 1017.5,    0.0, -999.0
16-02-2023, 00:41:50,    206,    0.3,    4.9,   0.00,   0.00, 1017.6,    0.1, -999.0
16-02-2023, 00:42:00,    205,    1.1,    4.8,   0.00,   0.00, 1017.6,    0.0, -999.0
16-02-2023, 00:42:11,    194,    0.8,    4.8,   0.00,   0.00, 1017.6,    0.0, -999.0
16-02-2023, 00:42:20,    197,    0.2,    4.8,   0.00,   0.00, 1017.6,    0.0, -999.0
16-02-2023, 00:42:30,    195,    0.2,    4.8,   0.00,   0.00, 1017.6,    0.0, -999.0
16-02-2023, 00:42:40,    195,    0.0,    4.7,   0.00,   0.00, 1017.5,    0.0, -999.0
16-02-2023, 00:42:51,    195,    0.0,    4.7,   0.00,   0.00, 1017.5,    0.1, -999.0
16-02-2023, 00:43:00,    195,    0.0,    4.6,   0.00,   0.00, 1017.4,    0.0, -999.0
16-02-2023, 00:43:10,    195,    0.0,    4.6,   0.00,   0.00, 1017.4,    0.1, -999.0
16-02-2023, 00:43:20,    195,    0.0,    4.6,   0.00,   0.00, 1017.5,    0.1, -999.0
16-02-2023, 00:43:30,    195,    0.3,    4.8,   0.00,   0.00, 1017.6,    0.0, -999.0
16-02-2023, 00:43:40,    198,    0.7,    4.8,   0.00,   0.00, 1017.6,    0.0, -999.0
16-02-2023, 00:43:50,    177,    1.8,    4.8,   0.00,   0.00, 1017.6,    0.0, -999.0
16-02-2023, 00:44:00,    228,    2.5,    4.8,   0.00,   0.00, 1017.6,    0.1, -999.0
16-02-2023, 00:44:10,    191,    1.0,    4.8,   0.00,   0.00, 1017.6,    0.0, -999.0
16-02-2023, 00:44:20,    228,    1.3,    4.9,   0.00,   0.00, 1017.6,    0.1, -999.0
16-02-2023, 00:44:30,    227,    0.0,    4.6,   0.00,   0.00, 1017.4,    0.0, -999.0
16-02-2023, 00:44:40,    228,    0.0,    4.7,   0.00,   0.00, 1017.5,    0.0, -999.0
16-02-2023, 00:44:50,    228,    0.0,    4.7,   0.00,   0.00, 1017.5,    0.0, -999.0
16-02-2023, 00:45:00,    225,    0.3,    4.7,   0.00,   0.00, 1017.6,    0.0, -999.0
16-02-2023, 00:45:10,    226,    0.0,    4.6,   0.00,   0.00, 1017.5,    0.1, -999.0
16-02-2023, 00:45:20,    235,    0.5,    4.7,   0.00,   0.00, 1017.5,    0.0, -999.0
16-02-2023, 00:45:30,    230,    0.2,    4.7,   0.00,   0.00, 1017.5,    0.1, -999.0
16-02-2023, 00:45:40,    230,    0.0,    4.7,   0.00,   0.00, 1017.4,    0.1, -999.0
16-02-2023, 00:45:50,    230,    0.0,    4.7,   0.00,   0.00, 1017.4,    0.0, -999.0
16-02-2023, 00:46:00,    202,    0.5,    4.8,   0.00,   0.00, 1017.5,    0.0, -999.0
16-02-2023, 00:46:10,    194,    0.8,    4.8,   0.00,   0.00, 1017.6,    0.0, -999.0
16-02-2023, 00:46:20,    195,    0.2,    4.7,   0.00,   0.00, 1017.5,    0.0, -999.0
16-02-2023, 00:46:30,    194,    0.0,    4.6,   0.00,   0.00, 1017.4,    0.0, -999.0
16-02-2023, 00:46:40,    192,    0.0,    4.7,   0.00,   0.00, 1017.4,    0.0, -999.0
16-02-2023, 00:46:50,    214,    1.5,    4.8,   0.00,   0.00, 1017.6,    0.0, -999.0